[[{"header":{"parameterUnit":"m.s-1","parameterCategory":1,"la1":30.2991,"la2":30.254,"lo1":-89.0895,"lo2":-89.0444,"dy":0.0017,"dx":0.0017,"nx":28,"ny":28,"refTime":"2024-05-06T09:00:00:Z","depth":0,"parameterNumber":2,"parameterNumberName":"U-component_of_WINDS"},"data":[0,0,0,0,0,0,0,0,0,0,0,0,0,0,0,0,0,0,0,0,0,0,0,0,0,0,0,0,0,0,0,0,0,0,0,0,0,0,0,0,0,0,0,0,0,0,0,0,0,0,0,0,0,0,0,0,0,0,-2.5626,-2.5626,0,-2.5631,-2.5631,-2.5631,-2.5591,-2.559,-2.5589,-2.5588,-2.5593,-2.5594,-2.5596,0,0,0,0,0,0,0,0,0,0,0,0,0,-2.5582,-2.5583,-2.5626,-2.5626,-2.5626,-2.5631,-2.5631,-2.5631,-2.5592,-2.559,-2.5589,-2.5588,-2.5593,-2.5594,-2.5596,0,0,0,0,0,0,0,0,0,0,0,0,0,-2.5596,-2.5584,-2.5626,-2.5607,-2.5605,-2.5631,-2.5631,-2.5631,-2.5592,-2.559,-2.5589,-2.5587,-2.5593,-2.5594,-2.5596,-2.564,0,0,-2.5601,-2.5602,0,0,0,0,0,0,0,0,-2.5595,-2.5597,-2.561,-2.5608,-2.5607,-2.5609,-2.5617,-2.5634,-2.5592,-2.5597,-2.5588,-2.5586,-2.56,-2.5601,-2.5605,-2.564,-2.564,-2.5601,-2.5602,-2.5603,-2.5604,0,0,0,0,0,0,0,-2.5594,-2.5597,-2.5628,-2.561,-2.5608,-2.5598,-2.5598,-2.562,-2.5608,-2.5596,-2.5594,-2.5595,-2.5599,-2.5604,-2.5605,-2.564,-2.5601,-2.5603,-2.5604,-2.5605,-2.5711,-2.5713,0,0,0,0,0,0,-2.5596,-2.5597,-2.5628,-2.5628,-2.5597,-2.56,-2.56,-2.561,-2.5607,-2.5605,-2.5596,-2.5593,-2.5602,-2.5603,-2.5605,-2.5656,-2.5603,-2.5605,-2.5606,-2.5709,-2.5712,-2.5713,0,0,0,0,0,0,-2.5595,-2.5599,-2.5628,-2.5612,-2.5614,-2.5603,-2.5614,-2.5611,-2.5616,-2.5607,-2.5605,-2.5604,-2.56,-2.5603,-2.5632,-2.5656,-2.5606,-2.5607,-2.5707,-2.571,-2.5713,-2.5759,0,0,0,0,0,0,-2.5594,-2.5599,-2.5615,-2.5612,-2.5615,-2.5654,-2.5615,-2.5612,-2.5619,-2.5615,-2.5614,-2.5612,-2.5599,-2.5629,-2.5633,-2.5657,-2.5609,-2.5705,-2.5709,-2.5712,-2.5755,-2.5763,-2.5769,0,0,0,0,0,-2.5593,-2.5628,-2.5617,-2.5621,-2.5636,-2.5655,-2.5657,-2.5642,-2.5621,-2.5638,-2.5632,-2.5612,-2.5653,-2.5632,-2.5637,-2.5662,-2.5703,-2.5708,-2.5711,-2.5752,-2.5761,-2.5769,0,0,0,0,0,0,-2.5635,-2.5628,-2.5614,-2.565,-2.5654,-2.5648,-2.5669,-2.5652,-2.5662,-2.5657,-2.5638,-2.5638,-2.567,-2.5669,-2.5646,-2.5704,-2.5674,-2.5679,-2.5704,-2.5712,-2.5719,-2.5719,-2.561,0,0,0,0,0,-2.5648,-2.5665,-2.5657,-2.569,-2.5692,-2.568,-2.5688,-2.5676,-2.5679,-2.568,-2.5677,-2.568,-2.5694,-2.5703,-2.5715,-2.5755,-2.5754,-2.5774,-2.5781,-2.5787,-2.5792,-2.5812,-2.5821,-2.5727,-2.5727,-2.5727,0,0,-2.5676,-2.5674,-2.5686,-2.5698,-2.5699,-2.5717,-2.5682,-2.5702,-2.5714,-2.5683,-2.571,-2.5708,-2.571,-2.5745,-2.576,-2.5744,-2.5817,-2.5792,-2.5797,-2.5798,-2.5817,-2.5826,-2.5834,-2.5729,-2.5729,-2.5728,0,0,-2.5736,-2.5736,-2.5763,-2.5765,-2.5767,-2.5759,-2.5766,-2.5763,-2.5761,-2.5787,-2.5764,-2.5779,-2.5803,-2.5806,-2.581,-2.5871,-2.5853,-2.5876,-2.5913,-2.5933,-2.5941,-2.5947,-2.5968,-2.5976,-2.5881,-2.5881,-2.5881,0,-2.577,-2.5795,-2.5779,-2.58,-2.5806,-2.5779,-2.5806,-2.5809,-2.5815,-2.582,-2.5803,-2.5832,-2.5832,-2.5867,-2.5882,-2.5887,-2.5893,-2.5876,-2.5941,-2.5947,-2.5953,-2.5973,-2.5981,-2.5883,-2.5883,-2.5883,-2.5883,0,-2.5837,-2.5855,-2.5876,-2.5883,-2.5892,-2.5916,-2.5903,-2.5913,-2.5901,-2.5895,-2.5922,-2.5921,-2.5932,-2.594,-2.5928,-2.5973,-2.5963,-2.5944,-2.5914,-2.5965,-2.5983,-2.5991,-2.5887,-2.5886,-2.5885,-2.5885,0,0,-2.5923,-2.592,-2.5929,-2.5931,-2.5932,-2.5945,-2.5968,-2.5979,-2.5988,-2.5994,-2.6012,-2.6033,-2.6016,-2.6021,-2.6009,-2.6027,-2.6075,-2.6005,-2.6005,-2.6018,-2.6123,-2.6137,-2.6147,-2.6063,-2.6065,-2.6066,-2.6123,0,-2.5981,-2.6019,-2.6005,-2.6045,-2.6061,-2.6036,-2.6056,-2.6058,-2.6053,-2.6066,-2.6061,-2.6076,-2.6051,-2.6054,-2.6071,-2.6066,-2.6096,-2.6061,-2.608,-2.6081,-2.6079,-2.6156,-2.6171,-2.6225,-2.613,-2.6131,-2.6132,0,-2.6053,-2.6061,-2.6102,-2.61,-2.6106,-2.6125,-2.6133,-2.6146,-2.6149,-2.6144,-2.615,-2.6134,-2.6157,-2.6127,-2.6157,-2.6134,-2.6141,-2.614,-2.6141,-2.6142,-2.6109,-2.6158,-2.6242,-2.625,-2.6144,-2.6143,-2.6142,0,-2.6111,-2.6132,-2.6159,-2.6163,-2.6161,-2.6174,-2.6174,-2.6175,-2.6183,-2.619,-2.6195,-2.6206,-2.6211,-2.622,-2.6208,-2.6187,-2.6239,-2.6209,-2.6236,-2.6236,-2.6247,-2.6246,-2.6333,-2.6253,-2.6253,-2.6253,-2.6253,0,-2.6176,-2.6202,-2.6185,-2.6202,-2.623,-2.6214,-2.6243,-2.624,-2.6241,-2.6257,-2.6236,-2.6251,-2.6234,-2.6248,-2.6239,-2.6265,-2.6268,-2.6264,-2.6261,-2.6266,-2.6266,-2.6269,-2.6265,-2.6255,-2.6254,-2.6254,-2.6254,0,-2.6245,-2.6235,-2.6263,-2.6259,-2.6259,-2.628,-2.6277,-2.6292,-2.6286,-2.6306,-2.6309,-2.63,-2.6315,-2.6303,-2.6318,-2.6312,-2.6346,-2.6339,-2.6345,-2.6343,-2.637,-2.6368,-2.6461,-2.6472,-2.6386,-2.6387,-2.6387,0,-2.6287,-2.6307,-2.6305,-2.6314,-2.6315,-2.633,-2.6338,-2.6323,-2.6331,-2.6336,-2.635,-2.6364,-2.6373,-2.6398,-2.6393,-2.6404,-2.6396,-2.6428,-2.6397,-2.6401,-2.6395,-2.6394,-2.6396,-2.6434,-2.6435,-2.6435,-2.6436,0,-2.6363,-2.6357,-2.6369,-2.6378,-2.6388,-2.6395,-2.64,-2.6409,-2.6394,-2.6405,-2.642,-2.6427,-2.6442,-2.6456,-2.6465,-2.6465,-2.6448,-2.6446,-2.6453,-2.6457,-2.646,-2.6458,-2.6361,-2.6444,-2.6443,-2.6442,-2.6442,-2.6442,-2.642,-2.6435,-2.6437,-2.645,-2.6453,-2.6458,-2.6472,-2.6468,-2.648,-2.6491,-2.6481,-2.6499,-2.6501,-2.6512,-2.6514,-2.6528,-2.6515,-2.6524,-2.6527,-2.6529,-2.6533,-2.6458,-2.653,-2.6529,-2.6529,-2.6529,-2.6529,0,-2.6494,-2.6493,-2.6506,-2.6514,-2.6525,-2.6508,-2.6513,-2.6523,-2.6539,-2.6543,-2.6552,-2.657,-2.6583,-2.6578,-2.6589,-2.6601,-2.6594,-2.6605,-2.6603,-2.6603,-2.6544,-2.6537,-2.661,-2.661,-2.661,-2.661,-2.661,-2.661,-2.6534,-2.6559,-2.6554,-2.6581,-2.658,-2.6597,-2.6601,-2.6606,-2.6609,-2.6629,-2.6639,-2.6636,-2.6636,-2.6648,-2.6659,-2.6657,-2.6662,-2.6675,-2.6671,-2.6616,-2.6608,-2.66,-2.6593,-2.6677,-2.6677,-2.6728,-2.6729,-2.6729]},{"header":{"parameterUnit":"m.s-1","parameterCategory":1,"la1":30.2991,"la2":30.254,"lo1":-89.0895,"lo2":-89.0444,"dy":0.0017,"dx":0.0017,"nx":28,"ny":28,"refTime":"2024-05-06T09:00:00:Z","depth":0,"parameterNumber":3,"parameterNumberName":"V-component_of_WINDS"},"data":[0,0,0,0,0,0,0,0,0,0,0,0,0,0,0,0,0,0,0,0,0,0,0,0,0,0,0,0,0,0,0,0,0,0,0,0,0,0,0,0,0,0,0,0,0,0,0,0,0,0,0,0,0,0,0,0,0,0,3.2635,3.2635,0,3.2676,3.2676,3.2677,3.2667,3.2666,3.2666,3.2665,3.2702,3.2704,3.2706,0,0,0,0,0,0,0,0,0,0,0,0,0,3.2543,3.2545,3.2635,3.2635,3.2636,3.2676,3.2676,3.2677,3.2667,3.2666,3.2665,3.2664,3.2702,3.2704,3.2706,0,0,0,0,0,0,0,0,0,0,0,0,0,3.2584,3.2546,3.2635,3.2636,3.2636,3.2676,3.2676,3.2677,3.2667,3.2666,3.2665,3.2664,3.2701,3.2704,3.2706,3.2745,0,0,3.2714,3.2715,0,0,0,0,0,0,0,0,3.2581,3.2587,3.2635,3.2636,3.2637,3.2665,3.2658,3.27,3.2668,3.2655,3.2665,3.2663,3.2691,3.2694,3.2704,3.2747,3.2748,3.2714,3.2716,3.2717,3.2718,0,0,0,0,0,0,0,3.2579,3.2585,3.2651,3.2636,3.2637,3.2633,3.2637,3.2666,3.2679,3.2656,3.2656,3.2661,3.2691,3.2702,3.2705,3.2749,3.2714,3.2716,3.2718,3.2719,3.2826,3.2828,0,0,0,0,0,0,3.2576,3.2583,3.2649,3.2652,3.2606,3.2636,3.264,3.2657,3.2679,3.2681,3.2662,3.2661,3.2698,3.2702,3.2706,3.2754,3.2717,3.2719,3.2721,3.2825,3.2827,3.2828,0,0,0,0,0,0,3.2574,3.2582,3.2648,3.2617,3.2625,3.2638,3.2657,3.2659,3.2669,3.2683,3.2685,3.2671,3.2697,3.2702,3.2736,3.2755,3.272,3.2723,3.2823,3.2826,3.2827,3.2849,0,0,0,0,0,0,3.2571,3.2581,3.2597,3.2618,3.2627,3.2678,3.2658,3.266,3.2675,3.2673,3.2692,3.2694,3.2696,3.2732,3.2738,3.2758,3.2725,3.2822,3.2824,3.2827,3.2847,3.2852,3.2856,0,0,0,0,0,3.2568,3.26,3.2598,3.2606,3.2648,3.2679,3.2685,3.2688,3.2676,3.2692,3.27,3.2693,3.2752,3.2736,3.2743,3.2763,3.2821,3.2824,3.2827,3.2845,3.2851,3.2856,0,0,0,0,0,0,3.258,3.2603,3.2601,3.2641,3.2659,3.2678,3.2698,3.2694,3.2714,3.2712,3.2714,3.2719,3.2753,3.2761,3.2743,3.2802,3.2784,3.2789,3.2796,3.2802,3.2806,3.2804,3.2727,0,0,0,0,0,3.2587,3.2613,3.2631,3.2665,3.2674,3.2684,3.2698,3.27,3.2717,3.2724,3.2735,3.2751,3.2773,3.2788,3.2809,3.2848,3.2852,3.2866,3.287,3.2874,3.2878,3.29,3.2906,3.2838,3.2838,3.2838,0,0,3.2603,3.2619,3.2634,3.2668,3.2682,3.2707,3.2691,3.2717,3.2736,3.2728,3.2761,3.2769,3.2787,3.2824,3.2841,3.2832,3.2897,3.2877,3.288,3.2882,3.2903,3.291,3.2915,3.284,3.2839,3.2839,0,0,3.2644,3.2658,3.2689,3.2703,3.2725,3.2732,3.2739,3.2759,3.2765,3.2799,3.2794,3.2814,3.2852,3.2866,3.2877,3.2924,3.2919,3.2931,3.2955,3.2976,3.2981,3.2986,3.3004,3.301,3.2935,3.2935,3.2935,0,3.266,3.2699,3.2704,3.2733,3.2747,3.2743,3.2773,3.2786,3.2813,3.2823,3.2813,3.2861,3.2873,3.2913,3.2925,3.2934,3.2942,3.2929,3.298,3.2985,3.299,3.3006,3.3013,3.2936,3.2936,3.2936,3.2936,0,3.2718,3.2745,3.2767,3.2795,3.2812,3.2841,3.2849,3.2866,3.2866,3.2873,3.2907,3.2921,3.2946,3.2955,3.2954,3.2995,3.2989,3.298,3.2962,3.2998,3.3013,3.302,3.2938,3.2938,3.2937,3.2937,0,0,3.2767,3.2799,3.2807,3.282,3.2844,3.2865,3.2893,3.2919,3.2933,3.2951,3.2975,3.3007,3.2999,3.3013,3.3013,3.3032,3.3069,3.302,3.3021,3.303,3.3116,3.3123,3.3131,3.3066,3.3067,3.3068,3.3114,0,3.2811,3.2864,3.2869,3.2916,3.2941,3.2937,3.2962,3.2979,3.2986,3.3008,3.3015,3.3039,3.3026,3.3034,3.3052,3.3061,3.3087,3.3058,3.3087,3.3088,3.3084,3.3139,3.3147,3.319,3.3121,3.3122,3.3122,0,3.287,3.2892,3.2942,3.2963,3.2974,3.2996,3.3021,3.3041,3.306,3.3064,3.308,3.3078,3.3106,3.3087,3.3126,3.3106,3.3118,3.3124,3.3126,3.3129,3.3108,3.3144,3.3204,3.3211,3.3132,3.3131,3.313,0,3.2902,3.2944,3.298,3.2991,3.3017,3.3033,3.3044,3.3061,3.3076,3.3097,3.3107,3.3129,3.3142,3.3159,3.3163,3.3149,3.3202,3.3183,3.3206,3.3206,3.3218,3.3217,3.3281,3.3225,3.3225,3.3224,3.3224,0,3.2951,3.2981,3.2995,3.3017,3.3051,3.3056,3.3089,3.3099,3.3115,3.3138,3.3135,3.3156,3.316,3.3182,3.3185,3.3217,3.3222,3.3226,3.3227,3.3227,3.3227,3.3235,3.3233,3.3226,3.3226,3.3225,3.3225,0,3.2993,3.3003,3.3042,3.3064,3.307,3.3094,3.3112,3.3132,3.314,3.3168,3.3175,3.3187,3.3212,3.3218,3.3248,3.325,3.3288,3.3286,3.3283,3.3283,3.3306,3.3304,3.3379,3.3389,3.3325,3.3325,3.3326,0,3.3024,3.3048,3.3073,3.3089,3.3101,3.3127,3.3143,3.3149,3.3165,3.3189,3.3206,3.3232,3.3253,3.3293,3.3303,3.3326,3.3324,3.3349,3.3328,3.3328,3.3326,3.3325,3.3327,3.3353,3.3354,3.3354,3.3355,0,3.3078,3.3083,3.3107,3.3133,3.3153,3.3174,3.3193,3.3206,3.3214,3.3233,3.326,3.3277,3.3308,3.3333,3.3356,3.3366,3.3362,3.3361,3.3368,3.3369,3.3367,3.3369,3.3295,3.336,3.3359,3.3359,3.3359,3.3358,3.3116,3.3138,3.3159,3.3187,3.3202,3.3221,3.3242,3.3253,3.3276,3.3303,3.3305,3.3334,3.3352,3.3383,3.3394,3.3417,3.3409,3.3418,3.3421,3.3423,3.3426,3.3363,3.342,3.342,3.342,3.342,3.342,0,3.3171,3.3185,3.321,3.3239,3.326,3.3256,3.3278,3.3295,3.3322,3.334,3.3361,3.3392,3.3417,3.3429,3.3454,3.3469,3.3468,3.3475,3.3475,3.3477,3.3431,3.3423,3.3476,3.3476,3.3476,3.3476,3.3476,3.3476,3.3203,3.3239,3.3246,3.329,3.3303,3.3333,3.3346,3.3363,3.3377,3.3413,3.3435,3.3443,3.3458,3.3484,3.3506,3.3509,3.3518,3.3527,3.3529,3.3486,3.348,3.3475,3.3468,3.3529,3.3529,3.3573,3.3574,3.3574]}]]